RYR94JD EGNM-EIDW

Flight info

Callsign RYR94JD
Flight time 0h 42m
Altitude 24000
Route NELSA4W NELSA DCT CROFT Y70 KOLID L70 PENIL L28 LELDO/N0377F280 M145 BAGSO BAGSO4L
Aircraft B38M/M-SDE1FGHILORVWXY/HB1

Departure

Time 2026-05-04 00:41
Airport Leeds Bradford Airport (EGNM)

Arrival

Time 2026-05-04 01:23
Airport Dublin Airport (EIDW)
Time Latitude Longitude Altitude Speed Heading
2026-05-04 00:01 53.86877 -1.65619 667 ft 0 kts
2026-05-04 00:05 53.86882 -1.65619 667 ft 0 kts
2026-05-04 00:29 53.86864 -1.65620 667 ft 4 kts
2026-05-04 00:29 53.86838 -1.65625 667 ft 4 kts 15°
2026-05-04 00:29 53.86817 -1.65643 666 ft 4 kts 66°
2026-05-04 00:30 53.86815 -1.65656 667 ft 1 kts 91°
2026-05-04 00:34 53.86815 -1.65652 667 ft 3 kts 91°
2026-05-04 00:34 53.86815 -1.65542 666 ft 14 kts 91°
2026-05-04 00:34 53.86772 -1.65415 664 ft 13 kts 174°
2026-05-04 00:34 53.86671 -1.65422 664 ft 15 kts 184°
2026-05-04 00:35 53.86570 -1.65433 668 ft 14 kts 183°
2026-05-04 00:35 53.86476 -1.65441 672 ft 13 kts 183°
2026-05-04 00:35 53.86396 -1.65449 678 ft 9 kts 183°
2026-05-04 00:35 53.86367 -1.65451 680 ft 0 kts 183°
2026-05-04 00:37 53.86366 -1.65451 680 ft 1 kts 183°
2026-05-04 00:38 53.86330 -1.65455 681 ft 10 kts 183°
2026-05-04 00:38 53.86236 -1.65462 682 ft 15 kts 179°
2026-05-04 00:38 53.86147 -1.65372 683 ft 16 kts 137°
2026-05-04 00:38 53.86054 -1.65229 678 ft 21 kts 138°
2026-05-04 00:39 53.85954 -1.65079 672 ft 19 kts 137°
2026-05-04 00:39 53.85888 -1.64927 666 ft 5 kts 169°
2026-05-04 00:39 53.85879 -1.64936 666 ft 2 kts 245°
2026-05-04 00:39 53.85889 -1.64977 666 ft 8 kts 310°
2026-05-04 00:40 53.85899 -1.64992 667 ft 0 kts 319°
2026-05-04 00:40 53.85901 -1.64994 667 ft 3 kts 319°
2026-05-04 00:40 53.86052 -1.65227 678 ft 71 kts 317°
2026-05-04 00:40 53.86641 -1.66133 669 ft 155 kts 317°
2026-05-04 00:41 53.87530 -1.67569 1018 ft 197 kts 315°
2026-05-04 00:41 53.88564 -1.69314 1804 ft 223 kts 312°
2026-05-04 00:41 53.89417 -1.71592 2798 ft 233 kts 290°
2026-05-04 00:41 53.89814 -1.74216 3900 ft 233 kts 279°
2026-05-04 00:42 53.89974 -1.77002 4630 ft 250 kts 270°
2026-05-04 00:42 53.89600 -1.79850 4777 ft 248 kts 240°
2026-05-04 00:42 53.88416 -1.81939 4983 ft 249 kts 212°
2026-05-04 00:42 53.87013 -1.83671 5874 ft 254 kts 226°
2026-05-04 00:43 53.85863 -1.86081 6049 ft 269 kts 232°
2026-05-04 00:43 53.84710 -1.88617 6135 ft 275 kts 234°
2026-05-04 00:43 53.83868 -1.91514 6230 ft 276 kts 255°
2026-05-04 00:43 53.83726 -1.94746 6364 ft 278 kts 277°
2026-05-04 00:44 53.84307 -1.97855 6516 ft 279 kts 298°
2026-05-04 00:44 53.85286 -2.00658 6680 ft 281 kts 300°
2026-05-04 00:44 53.86116 -2.03644 6789 ft 281 kts 282°
2026-05-04 00:44 53.86266 -2.06924 6930 ft 281 kts 270°
2026-05-04 00:45 53.86296 -2.10242 6987 ft 282 kts 270°
2026-05-04 00:45 53.86314 -2.13566 6942 ft 282 kts 270°
2026-05-04 00:45 53.86155 -2.16858 7118 ft 281 kts 251°
2026-05-04 00:45 53.85191 -2.19695 8113 ft 282 kts 228°
2026-05-04 00:46 53.83781 -2.22060 9058 ft 288 kts 223°
2026-05-04 00:46 53.82306 -2.24399 10013 ft 293 kts 223°
2026-05-04 00:46 53.80774 -2.26774 10770 ft 305 kts 222°
2026-05-04 00:46 53.79169 -2.29227 11461 ft 316 kts 222°
2026-05-04 00:47 53.77530 -2.31709 12197 ft 323 kts 221°
2026-05-04 00:47 53.75842 -2.34252 13009 ft 327 kts 221°
2026-05-04 00:47 53.74130 -2.36821 13784 ft 331 kts 221°
2026-05-04 00:47 53.72398 -2.39415 14519 ft 335 kts 221°
2026-05-04 00:48 53.70644 -2.42036 15222 ft 338 kts 221°
2026-05-04 00:48 53.68872 -2.44682 15891 ft 342 kts 221°
2026-05-04 00:48 53.67081 -2.47352 16533 ft 345 kts 221°
2026-05-04 00:48 53.65275 -2.50043 17147 ft 348 kts 221°
2026-05-04 00:49 53.63543 -2.52750 17700 ft 351 kts 229°
2026-05-04 00:49 53.62261 -2.56243 18279 ft 353 kts 246°
2026-05-04 00:49 53.61270 -2.60051 18770 ft 357 kts 246°
2026-05-04 00:49 53.60286 -2.63906 19286 ft 360 kts 247°
2026-05-04 00:50 53.59308 -2.67799 19773 ft 362 kts 247°
2026-05-04 00:50 53.58333 -2.71728 20239 ft 365 kts 248°
2026-05-04 00:50 53.57699 -2.75853 20692 ft 367 kts 265°
2026-05-04 00:50 53.57742 -2.80096 21108 ft 370 kts 272°
2026-05-04 00:51 53.57895 -2.84436 21490 ft 373 kts 274°
2026-05-04 00:51 53.58076 -2.88795 21896 ft 375 kts 274°
2026-05-04 00:51 53.58272 -2.93183 22276 ft 377 kts 274°
2026-05-04 00:51 53.58479 -2.97592 22645 ft 379 kts 274°
2026-05-04 00:52 53.58689 -3.02021 23000 ft 381 kts 274°
2026-05-04 00:52 53.58901 -3.06478 23337 ft 383 kts 274°
2026-05-04 00:52 53.59113 -3.10960 23663 ft 385 kts 274°
2026-05-04 00:52 53.59325 -3.15461 23942 ft 388 kts 274°
2026-05-04 00:53 53.59537 -3.20025 24016 ft 394 kts 274°
2026-05-04 00:53 53.59749 -3.24603 23996 ft 400 kts 274°
2026-05-04 00:53 53.59963 -3.29278 24001 ft 402 kts 274°
2026-05-04 00:53 53.60177 -3.33976 24001 ft 402 kts 274°
2026-05-04 00:54 53.60388 -3.38671 24000 ft 402 kts 274°
2026-05-04 00:54 53.60597 -3.43370 24000 ft 402 kts 274°
2026-05-04 00:54 53.60805 -3.48065 24000 ft 402 kts 274°
2026-05-04 00:54 53.61011 -3.52761 23970 ft 403 kts 274°
2026-05-04 00:55 53.61215 -3.57449 23676 ft 400 kts 274°
2026-05-04 00:55 53.61415 -3.62097 23378 ft 397 kts 274°
2026-05-04 00:55 53.61789 -3.66614 23065 ft 394 kts 286°
2026-05-04 00:55 53.62760 -3.70915 22780 ft 392 kts 291°
2026-05-04 00:56 53.63751 -3.75189 22479 ft 391 kts 291°
2026-05-04 00:56 53.64749 -3.79431 22181 ft 389 kts 291°
2026-05-04 00:56 53.65749 -3.83648 21882 ft 387 kts 291°
2026-05-04 00:56 53.66748 -3.87846 21582 ft 384 kts 291°
2026-05-04 00:57 53.67741 -3.92019 21283 ft 382 kts 291°
2026-05-04 00:57 53.68727 -3.96168 20984 ft 380 kts 291°
2026-05-04 00:57 53.69694 -4.00243 20689 ft 378 kts 291°
2026-05-04 00:57 53.70668 -4.04355 20389 ft 376 kts 291°
2026-05-04 00:58 53.71547 -4.08484 20226 ft 373 kts 282°
2026-05-04 00:58 53.71802 -4.12830 20151 ft 373 kts 273°
2026-05-04 00:58 53.71977 -4.17195 20064 ft 373 kts 274°
2026-05-04 00:58 53.72150 -4.21559 19977 ft 372 kts 273°
2026-05-04 00:59 53.72317 -4.25915 19890 ft 372 kts 273°
2026-05-04 00:59 53.72480 -4.30267 19803 ft 371 kts 273°
2026-05-04 00:59 53.72641 -4.34611 19666 ft 371 kts 273°
2026-05-04 00:59 53.72800 -4.38944 19299 ft 367 kts 273°
2026-05-04 01:00 53.72953 -4.43170 18950 ft 363 kts 273°
2026-05-04 01:00 53.73105 -4.47398 18599 ft 359 kts 273°
2026-05-04 01:00 53.73253 -4.51579 18249 ft 355 kts 273°
2026-05-04 01:00 53.73398 -4.55714 17901 ft 351 kts 273°
2026-05-04 01:01 53.73476 -4.57952 17712 ft 349 kts 273°
2026-05-04 01:01 53.73617 -4.62021 17364 ft 345 kts 273°
2026-05-04 01:01 53.73664 -4.63380 17245 ft 344 kts 273°
2026-05-04 01:01 53.73771 -4.66504 16975 ft 341 kts 273°
2026-05-04 01:02 53.73906 -4.70493 16625 ft 338 kts 273°
2026-05-04 01:02 53.74037 -4.74384 16282 ft 335 kts 273°
2026-05-04 01:02 53.74167 -4.78300 15935 ft 332 kts 273°
2026-05-04 01:02 53.74295 -4.82181 15587 ft 329 kts 273°
2026-05-04 01:03 53.74422 -4.86029 15238 ft 327 kts 273°
2026-05-04 01:03 53.74547 -4.89847 14890 ft 324 kts 272°
2026-05-04 01:03 53.74670 -4.93634 14541 ft 322 kts 272°
2026-05-04 01:03 53.74791 -4.97400 14193 ft 320 kts 272°
2026-05-04 01:04 53.74909 -5.01136 13845 ft 317 kts 272°
2026-05-04 01:04 53.75026 -5.04842 13498 ft 315 kts 272°
2026-05-04 01:04 53.75141 -5.08535 13149 ft 313 kts 272°
2026-05-04 01:04 53.75250 -5.12137 12857 ft 310 kts 271°
2026-05-04 01:05 53.74964 -5.15695 12565 ft 306 kts 251°
2026-05-04 01:05 53.74275 -5.19070 12304 ft 302 kts 251°
2026-05-04 01:05 53.73607 -5.22423 12029 ft 300 kts 251°
2026-05-04 01:05 53.72936 -5.25755 11756 ft 298 kts 251°
2026-05-04 01:06 53.72269 -5.29058 11483 ft 297 kts 251°
2026-05-04 01:06 53.71602 -5.32344 11210 ft 295 kts 251°
2026-05-04 01:06 53.70938 -5.35615 10937 ft 294 kts 251°
2026-05-04 01:06 53.70285 -5.38817 10726 ft 291 kts 251°
2026-05-04 01:07 53.69628 -5.42040 10567 ft 290 kts 251°
2026-05-04 01:07 53.68970 -5.45259 10406 ft 290 kts 251°
2026-05-04 01:07 53.68314 -5.48465 10246 ft 289 kts 251°
2026-05-04 01:07 53.67776 -5.51722 10085 ft 288 kts 258°
2026-05-04 01:08 53.67370 -5.55019 10007 ft 287 kts 258°
2026-05-04 01:08 53.66950 -5.58310 9966 ft 287 kts 257°
2026-05-04 01:08 53.66520 -5.61601 9876 ft 287 kts 257°
2026-05-04 01:08 53.66091 -5.64837 9791 ft 286 kts 257°
2026-05-04 01:09 53.65653 -5.68107 9704 ft 286 kts 257°
2026-05-04 01:09 53.65214 -5.71374 9617 ft 286 kts 257°
2026-05-04 01:09 53.64775 -5.74626 9528 ft 283 kts 257°
2026-05-04 01:09 53.64344 -5.77859 9440 ft 282 kts 257°
2026-05-04 01:10 53.63917 -5.81085 9352 ft 282 kts 257°
2026-05-04 01:10 53.63489 -5.84302 9266 ft 281 kts 257°
2026-05-04 01:10 53.63067 -5.87475 9180 ft 281 kts 257°
2026-05-04 01:10 53.62638 -5.90687 9093 ft 281 kts 257°
2026-05-04 01:11 53.62210 -5.93889 9006 ft 280 kts 257°
2026-05-04 01:11 53.61782 -5.97084 8804 ft 279 kts 257°
2026-05-04 01:11 53.61348 -6.00319 8209 ft 288 kts 257°
2026-05-04 01:11 53.60908 -6.03585 7989 ft 283 kts 257°
2026-05-04 01:12 53.60472 -6.06823 7991 ft 285 kts 257°
2026-05-04 01:12 53.60032 -6.10078 7999 ft 285 kts 257°
2026-05-04 01:12 53.59597 -6.13288 7999 ft 285 kts 257°
2026-05-04 01:12 53.59156 -6.16540 7999 ft 282 kts 257°
2026-05-04 01:13 53.58729 -6.19672 7998 ft 267 kts 257°
2026-05-04 01:13 53.58325 -6.22637 7998 ft 255 kts 257°
2026-05-04 01:13 53.57931 -6.25521 8003 ft 253 kts 257°
2026-05-04 01:13 53.57536 -6.28403 7936 ft 253 kts 257°
2026-05-04 01:14 53.57138 -6.31302 7630 ft 254 kts 257°
2026-05-04 01:14 53.56739 -6.34206 7286 ft 255 kts 257°
2026-05-04 01:14 53.56344 -6.37121 6942 ft 256 kts 259°
2026-05-04 01:14 53.56122 -6.40092 6599 ft 256 kts 263°
2026-05-04 01:15 53.55926 -6.43069 6255 ft 256 kts 263°
2026-05-04 01:15 53.55723 -6.46011 5915 ft 257 kts 263°
2026-05-04 01:15 53.55509 -6.48994 5571 ft 257 kts 263°
2026-05-04 01:15 53.55291 -6.51977 5227 ft 257 kts 262°
2026-05-04 01:16 53.55070 -6.54960 4884 ft 257 kts 262°
2026-05-04 01:16 53.54849 -6.57919 4675 ft 252 kts 262°
2026-05-04 01:16 53.54630 -6.60836 4317 ft 253 kts 262°
2026-05-04 01:16 53.54324 -6.63717 4106 ft 246 kts 248°
2026-05-04 01:17 53.53345 -6.65924 4078 ft 234 kts 217°
2026-05-04 01:17 53.51863 -6.67011 4059 ft 235 kts 191°
2026-05-04 01:17 53.50240 -6.67367 4040 ft 236 kts 186°
2026-05-04 01:17 53.48631 -6.67566 4002 ft 236 kts 176°
2026-05-04 01:18 53.47087 -6.66720 3964 ft 236 kts 148°
2026-05-04 01:18 53.45975 -6.64776 3883 ft 227 kts 119°
2026-05-04 01:18 53.45555 -6.62323 3764 ft 214 kts 96°
2026-05-04 01:18 53.45435 -6.59905 3607 ft 203 kts 95°
2026-05-04 01:19 53.45325 -6.57598 3429 ft 195 kts 95°
2026-05-04 01:19 53.45210 -6.55344 3237 ft 193 kts 95°
2026-05-04 01:19 53.45093 -6.53113 3037 ft 191 kts 95°
2026-05-04 01:19 53.44973 -6.50899 2815 ft 190 kts 96°
2026-05-04 01:20 53.44856 -6.48744 2586 ft 185 kts 96°
2026-05-04 01:20 53.44741 -6.46645 2356 ft 177 kts 96°
2026-05-04 01:20 53.44629 -6.44629 2132 ft 171 kts 96°
2026-05-04 01:20 53.44521 -6.42685 1929 ft 162 kts 96°
2026-05-04 01:21 53.44420 -6.40835 1713 ft 156 kts 96°
2026-05-04 01:21 53.44320 -6.39033 1541 ft 154 kts 96°
2026-05-04 01:21 53.44222 -6.37237 1320 ft 154 kts 96°
2026-05-04 01:21 53.44117 -6.35457 1116 ft 154 kts 97°
2026-05-04 01:22 53.44006 -6.33680 859 ft 154 kts 96°
2026-05-04 01:22 53.43914 -6.31907 619 ft 154 kts 95°
2026-05-04 01:22 53.43825 -6.30111 423 ft 155 kts 96°
2026-05-04 01:22 53.43727 -6.28318 276 ft 152 kts 94°
2026-05-04 01:23 53.43631 -6.26634 213 ft 121 kts 95°
2026-05-04 01:23 53.43580 -6.25650 211 ft 56 kts 95°
2026-05-04 01:23 53.43520 -6.25205 213 ft 35 kts 121°
2026-05-04 01:23 53.43431 -6.24993 214 ft 0 kts 169°
2026-05-04 01:24 53.43427 -6.24993 214 ft 1 kts 186°
2026-05-04 01:24 53.43396 -6.25022 213 ft 8 kts 230°
2026-05-04 01:24 53.43383 -6.25120 213 ft 10 kts 275°
2026-05-04 01:24 53.43391 -6.25254 213 ft 13 kts 276°
2026-05-04 01:25 53.43401 -6.25417 213 ft 15 kts 276°
2026-05-04 01:25 53.43405 -6.25603 213 ft 13 kts 251°
2026-05-04 01:25 53.43326 -6.25626 213 ft 14 kts 155°
2026-05-04 01:25 53.43256 -6.25577 213 ft 12 kts 158°
2026-05-04 01:26 53.43192 -6.25489 213 ft 13 kts 95°
2026-05-04 01:26 53.43225 -6.25332 213 ft 16 kts 65°
2026-05-04 01:26 53.43227 -6.25154 213 ft 14 kts 96°
2026-05-04 01:26 53.43208 -6.24999 213 ft 12 kts 129°
2026-05-04 01:27 53.43147 -6.24966 213 ft 5 kts 201°
2026-05-04 01:27 53.43127 -6.24978 213 ft 2 kts 193°
2026-05-04 01:27 53.43117 -6.24981 213 ft 0 kts 189°
2026-05-04 01:27 53.43111 -6.24982 213 ft 0 kts 188°